[[{"header":{"parameterUnit":"m.s-1","parameterCategory":1,"la1":30.2992,"la2":30.254,"lo1":-89.0895,"lo2":-89.0443,"dy":0.0025,"dx":0.0025,"nx":19,"ny":19,"refTime":"2026-04-15T09:00:00:Z","depth":0,"parameterNumber":2,"parameterNumberName":"U-component_of_WINDS"},"data":[0,0,0,-1.6983,-1.6982,-1.6961,-1.6961,-1.6947,-1.6947,0,0,0,0,0,0,0,0,0,0,0,-1.6996,-1.6996,-1.6983,-1.6982,-1.6961,-1.6961,-1.6947,-1.6947,0,0,0,0,0,0,0,0,0,0,0,-1.6996,-1.6996,-1.6996,-1.6982,-1.6961,-1.6961,-1.6947,-1.6958,0,0,0,0,0,0,0,0,0,0,-1.6977,-1.6996,-1.6996,-1.6996,-1.6982,-1.6961,-1.6961,-1.6959,-1.6957,-1.6961,0,-1.6966,0,-1.6956,-1.6946,-1.6946,0,0,0,-1.6977,-1.6997,-1.6984,-1.6996,-1.6982,-1.6961,-1.6969,-1.6958,-1.6957,-1.696,-1.6966,-1.6965,-1.6956,-1.6946,-1.6946,-1.6984,-1.6985,0,0,-1.6978,-1.6996,-1.6985,-1.6984,-1.6987,-1.697,-1.6969,-1.6957,-1.6965,-1.6966,-1.6964,-1.6956,-1.6946,-1.6946,-1.6984,-1.6985,0,0,0,-1.6985,-1.6997,-1.6985,-1.6985,-1.698,-1.6969,-1.6968,-1.6965,-1.696,-1.6964,-1.6956,-1.6946,-1.6946,-1.6984,-1.6984,-1.7021,0,0,0,-1.6986,-1.7001,-1.6986,-1.6996,-1.6981,-1.6972,-1.6977,-1.6961,-1.6959,-1.6956,-1.6946,-1.6946,-1.6983,-1.6984,-1.7019,-1.7036,0,0,0,-1.6995,-1.7002,-1.7001,-1.6997,-1.6989,-1.6972,-1.6966,-1.696,-1.6954,-1.6946,-1.6946,-1.6983,-1.6984,-1.7018,-1.7033,-1.7051,0,0,0,-1.701,-1.7035,-1.7002,-1.7027,-1.6989,-1.6995,-1.6966,-1.6969,-1.6968,-1.6946,-1.6983,-1.6984,-1.7017,-1.7031,-1.7049,-1.7068,-1.7078,0,0,-1.7052,-1.7041,-1.7054,-1.7024,-1.704,-1.6997,-1.7019,-1.7001,-1.6985,-1.6986,-1.6986,-1.702,-1.7033,-1.705,-1.7129,-1.7137,0,0,0,-1.7073,-1.7083,-1.7083,-1.7082,-1.7069,-1.7059,-1.7035,-1.7029,-1.7028,-1.6989,-1.7031,-1.7038,-1.7048,-1.7056,-1.7063,-1.707,-1.6989,-1.6989,-1.6989,-1.7157,-1.7134,-1.7154,-1.7129,-1.7129,-1.7104,-1.7102,-1.7089,-1.7066,-1.7077,-1.7077,-1.7127,-1.7138,-1.7142,-1.715,-1.7086,-1.7086,-1.7086,-1.7086,-1.7215,-1.7225,-1.7194,-1.7203,-1.7179,-1.7186,-1.7164,-1.7148,-1.7151,-1.7125,-1.7133,-1.7105,-1.7152,-1.7157,-1.7089,-1.7088,-1.7088,-1.7088,-1.7087,-1.7267,-1.7267,-1.7259,-1.7255,-1.7254,-1.7228,-1.7233,-1.7211,-1.7191,-1.7198,-1.7195,-1.7194,-1.719,-1.7198,-1.7199,-1.7199,-1.7199,-1.7199,-1.7199,-1.7323,-1.7312,-1.7318,-1.7307,-1.7303,-1.7295,-1.7272,-1.7268,-1.7258,-1.7241,-1.7241,-1.7218,-1.7161,-1.7147,-1.7202,-1.7201,-1.7201,-1.7201,-1.72,-1.7389,-1.7371,-1.738,-1.7377,-1.7361,-1.7362,-1.7334,-1.7328,-1.7322,-1.7325,-1.73,-1.7261,-1.7249,-1.7243,-1.7231,-1.7305,-1.7305,-1.7305,-1.7305,-1.7432,-1.7424,-1.7428,-1.7424,-1.7417,-1.7393,-1.7405,-1.7387,-1.7366,-1.736,-1.7347,-1.7329,-1.7325,-1.7315,-1.7308,-1.7296,-1.7384,-1.7385,-1.7385,-1.7471,-1.7461,-1.7475,-1.7453,-1.7439,-1.7428,-1.7438,-1.7435,-1.7407,-1.7387,-1.7356,-1.7352,-1.7324,-1.7316,-1.7295,-1.7284,-1.7262,0,0]},{"header":{"parameterUnit":"m.s-1","parameterCategory":1,"la1":30.2992,"la2":30.254,"lo1":-89.0895,"lo2":-89.0443,"dy":0.0025,"dx":0.0025,"nx":19,"ny":19,"refTime":"2026-04-15T09:00:00:Z","depth":0,"parameterNumber":3,"parameterNumberName":"V-component_of_WINDS"},"data":[0,0,0,3.9103,3.9103,3.909,3.909,3.9098,3.9099,0,0,0,0,0,0,0,0,0,0,0,3.912,3.9121,3.9103,3.9103,3.909,3.909,3.9098,3.9099,0,0,0,0,0,0,0,0,0,0,0,3.912,3.9121,3.9122,3.9103,3.909,3.909,3.9098,3.9099,0,0,0,0,0,0,0,0,0,0,3.9108,3.9137,3.9121,3.9122,3.9103,3.909,3.909,3.9099,3.9099,3.9114,0,3.913,0,3.9115,3.9101,3.9101,0,0,0,3.9093,3.9137,3.9121,3.9122,3.9103,3.909,3.9093,3.9099,3.9099,3.9115,3.913,3.913,3.9115,3.9101,3.9101,3.922,3.9221,0,0,3.9094,3.9126,3.9121,3.9122,3.9124,3.9094,3.9093,3.9099,3.9118,3.913,3.913,3.9115,3.9101,3.9101,3.9219,3.922,0,0,0,3.9102,3.9127,3.911,3.9122,3.9118,3.9093,3.9093,3.9118,3.911,3.913,3.9115,3.9101,3.9102,3.9217,3.9219,3.9301,0,0,0,3.9102,3.9132,3.9111,3.9131,3.9118,3.9118,3.9112,3.9109,3.9109,3.9115,3.9101,3.9102,3.9216,3.9218,3.9297,3.9335,0,0,0,3.9117,3.9133,3.9136,3.9132,3.9128,3.9117,3.9108,3.9108,3.9101,3.9101,3.9102,3.9215,3.9218,3.9292,3.9328,3.9377,0,0,0,3.9141,3.921,3.9138,3.9209,3.9128,3.9167,3.9108,3.9135,3.9145,3.9101,3.9216,3.9219,3.9291,3.9324,3.9372,3.9424,3.9448,0,0,3.9246,3.9223,3.9262,3.9198,3.9258,3.9167,3.9239,3.9218,3.9188,3.9211,3.9214,3.9298,3.9328,3.9376,3.9571,3.959,0,0,0,3.9306,3.9335,3.9344,3.9354,3.9339,3.933,3.9294,3.9287,3.9304,3.9206,3.9327,3.9344,3.9371,3.9394,3.941,3.9432,3.9231,3.923,3.923,3.9501,3.9459,3.9521,3.9478,3.949,3.9452,3.9458,3.9441,3.9396,3.9425,3.9432,3.9555,3.9584,3.9596,3.9619,3.9455,3.9456,3.9456,3.9456,3.965,3.9684,3.9623,3.9661,3.9617,3.9649,3.9616,3.9583,3.9607,3.9547,3.9568,3.9507,3.9619,3.9637,3.9462,3.9461,3.946,3.9459,3.9459,3.9774,3.9783,3.9772,3.9783,3.9797,3.9751,3.9777,3.9736,3.9698,3.9719,3.9723,3.9721,3.9715,3.9723,3.9724,3.9724,3.9725,3.9725,3.9725,3.9907,3.9891,3.9918,3.9908,3.9909,3.9907,3.987,3.9871,3.9862,3.983,3.983,3.9783,3.9637,3.9601,3.9732,3.9731,3.973,3.9729,3.9729,4.0075,4.003,4.0072,4.0074,4.0059,4.0076,4.0023,4.0029,4.0023,4.0038,3.9986,3.9884,3.9859,3.9845,3.9816,3.9994,3.9994,3.9994,3.9994,4.018,4.0163,4.0196,4.0202,4.0203,4.0159,4.0208,4.0181,4.0146,4.014,4.0108,4.0065,4.0053,4.0035,4.0018,3.999,4.0208,4.0208,4.0208,4.0282,4.0263,4.0313,4.0277,4.0262,4.0251,4.0297,4.0307,4.0257,4.0216,4.0135,4.0126,4.0057,4.0036,3.9994,3.9968,3.9915,0,0]}]]